Lexington Weather

Lexington, Massachusetts, USA

34°F
4/16/2021 9:24am 
  • Lexington Conditions: Snow, Mist, Overcast
  • Temperature: 34.2°F / 1.2°CColder 3.9°F than last hour.
  • Dew Point: 32.9°FDecreased 4.0°Fsince last hour.
  • Relative Humidity: 95
  • Wind: Wind from N N Calm, 10-min avg: 1 mph, gust: 2 mph
  • Barometer: 29.48 inFalling 0.04  inHg/hr Falling Slowly
  • Visibility: ½ mile
  • Snow Today: 0.3 in
  •   

Regional Weather Roundup
for Boston / Norton, MA

        
000
ASUS41 KBOX 121504
RWRBOX

REGIONAL WEATHER ROUNDUP
NATIONAL WEATHER SERVICE BOSTON/NORTON MA
1100 AM EDT MON APR 12 2021

NOTE:  "FAIR" INDICATES FEW OR NO CLOUDS BELOW 12,000 FEET WITH NO 
SIGNIFICANT WEATHER AND/OR OBSTRUCTIONS TO VISIBILITY.

MAZALL-121600-
EASTERN MASSACHUSETTS
  
CITY           SKY/WX    TMP DP  RH WIND       PRES   REMARKS
BOSTON         NOT AVBL                                               
BEVERLY        NOT AVBL                                               
LAWRENCE       LGT RAIN  49  45  86 NE16G23   29.87S FOG              
BEDFORD        CLOUDY    50  43  77 E15       29.83S                  
BLUE HILL        N/A     46  42  86 E17G29    29.81R                  
NORWOOD        CLOUDY    51  42  71 NE14G24   29.83R                  
MARSHFIELD     CLOUDY    48  45  87 NE14G20   29.84R                  
PLYMOUTH       CLOUDY    48  41  76 NE21G31   29.81R                  
TAUNTON        LGT RAIN  48  42  80 NE10G21   29.82R                  
NEW BEDFORD    CLOUDY    49  40  71 NE20G26   29.80R                  
$$

MAZALL-121600-
CAPE COD AND THE ISLANDS
  
CITY           SKY/WX    TMP DP  RH WIND       PRES   REMARKS
FALMOUTH       CLOUDY    46  43  87 NE21      29.80R FOG              
HYANNIS        LGT RAIN  47  45  93 NE18G25   29.78R FOG              
CHATHAM        LGT RAIN  45  43  93 NE15G23   29.81S FOG              
PROVINCETOWN   CLOUDY    49  43  80 MISG        N/A                   
NANTUCKET      CLOUDY    47  44  90 NE18G24   29.78R FOG              
MARTHAS VNYRD  CLOUDY    49  42  77 NE16      29.78S                  
$$
 
MAZALL-121600-
CENTRAL AND WESTERN MASSACHUSETTS
  
CITY           SKY/WX    TMP DP  RH WIND       PRES   REMARKS
WORCESTER      CLOUDY    46  41  82 NE13G24   29.81R                  
FITCHBURG      CLOUDY    49  43  80 NE7       29.84S                  
ORANGE         CLOUDY    49  42  77 NE9       29.83R                  
SPRINGFIELD    LGT RAIN  49  40  72 E9        29.82R                  
WESTFIELD      CLOUDY    50  40  68 NE8       29.82R                  
NORTH ADAMS    LGT RAIN  48  45  89 E7        29.81S                  
PITTSFIELD     CLOUDY    47  39  74 VRB6G17   29.78F                  
$$
 
RIZALL-121600-
RHODE ISLAND
  
CITY           SKY/WX    TMP DP  RH WIND       PRES   REMARKS
PROVIDENCE     CLOUDY    51  42  71 NE18      29.81S                  
NEWPORT        CLOUDY    50  41  71 NE18G28   29.79S                  
BLOCK ISLAND   PTSUNNY   48  41  76 NE16G24   29.79S                  
SMITHFIELD     LGT RAIN  47  44  90 NE14      29.81R                  
WESTERLY       CLOUDY    50  39  66 NE14G21   29.79R                  
$$
 
CTZALL-121600-
CONNECTICUT
  
CITY           SKY/WX    TMP DP  RH WIND       PRES   REMARKS
BRADLEY INTL   CLOUDY    53  39  59 NE14      29.80F                  
HARTFORD       CLOUDY    55  39  54 NE14      29.79F                  
BRIDGEPORT     CLOUDY    49  38  65 E8        29.79S                  
DANBURY        CLOUDY    52  35  52 E9        29.80R                  
GROTON         PTSUNNY   55  41  59 NE10      29.78R                  
NEW HAVEN      CLOUDY    52  42  69 SE6       29.78S                  
CHESTER        CLOUDY    54  34  47 E8G14     29.78S                  
MERIDEN        CLOUDY    54  34  46 N6        29.79S                  
WILLIMANTIC    CLOUDY    50  40  68 E12       29.80R                  
OXFORD         LGT RAIN  48  39  71 E9        29.79S                  
$$

MEZ002-015-021-024-NHZ003-005-008-011-012-014-VTZ005-008-121600-
NORTHERN NEW ENGLAND
  
CITY           SKY/WX    TMP DP  RH WIND       PRES   REMARKS
PORTLAND ME    CLOUDY    49  46  90 NE12G21   29.88R                  
BANGOR ME      CLOUDY    51  40  65 NE15G22   29.92R                  
CONCORD NH     CLOUDY    51  41  68 E8        29.85R                  
MANCHESTER NH  LGT RAIN  51  43  74 NE8       29.84R                  
NASHUA NH      LGT RAIN  48  48 100 E6        29.86R FOG              
PORTSMOUTH NH  CLOUDY    50  42  75 NE23G32   29.87R FOG              
JAFFREY NH     CLOUDY    48  42  80 MISG      29.83R                  
KEENE NH       CLOUDY    49  42  77 NE8       29.84R                  
BURLINGTON VT  MOSUNNY   61  38  42 VRB5      29.82S                  
MT. WASHINGTON FRZ DRZL  30  30 100 E36G47      N/A  VSB 1/16WCI  14  
$$

NYZ052-076-121600-
EASTERN NEW YORK
  
CITY           SKY/WX    TMP DP  RH WIND       PRES   REMARKS
ALBANY         LGT RAIN  48  43  82 S3        29.82S                  
NEW YORK CITY  LGT RAIN  48  38  68 NE12      29.79R                  
$$
 
ANZALL-121600-
MARINE OBSERVATIONS
  
STATION/POSITION TIME  TEMP    WIND        PRES    VSBY  WAVE
                       AIR SEA DIR/SP/G                  HT/PER
                 (UTC) (F)     (DEG/KT/KT) (MB)    (MI)  (FT/S)
BOSTON BUOY      1440   44 44   60/ 17/ 21 1010.9R
BUZZARDS BAY     1400           40/ 15/ 16 1009.5R
NANTUCKET SOUND  1440      47                N/A
MASS BAY-STELLWA 1404   44      60/ 16/ 19 1009.4R  1 7/8  3/ 5
ISLE OF SHOALS   1400   46      40/ 20/ 24 1010.1R
S OF BLOCK IS    1426      45                N/A           5/ 8
$$

......................KEY.........................
  SKY/WX - SKY CONDITION/PRESENT WEATHER
  TMP    - TEMPERATURE IN FAHRENHEIT
  DWPT   - DEWPOINT IN FAHRENHEIT
  RH     - RELATIVE HUMIDITY IN PERCENT
  WIND   - DIRECTION AND SPEED IN MPH
  PRES   - MEAN SEA LEVEL PRESSURE IN INCHES OF HG
  WCI    - WIND CHILL INDEX
  VSB    - VISIBILITY IN MILES
  HX     - HEAT INDEX
  TC     - TEMPERATURE IN CELSIUS
  VRB    - VARIABLE WIND DIRECTION
  N/A    - NOT AVAILABLE
  
      

Other recent Regional Weather Roundups

Fri Apr 16, 9:04am

Fri Apr 16, 8:04am

Fri Apr 16, 7:04am

Fri Apr 16, 6:04am

Fri Apr 16, 5:04am

Fri Apr 16, 4:04am

Fri Apr 16, 3:04am

Fri Apr 16, 2:04am

Fri Apr 16, 1:04am

Fri Apr 16, 12:04am

Thu Apr 15, 11:05pm

Thu Apr 15, 10:04pm

Thu Apr 15, 9:04pm

Thu Apr 15, 8:04pm

Thu Apr 15, 7:05pm

Thu Apr 15, 6:04pm

Thu Apr 15, 5:05pm

Thu Apr 15, 4:04pm

Thu Apr 15, 3:05pm

Thu Apr 15, 2:04pm

Thu Apr 15, 1:05pm

Thu Apr 15, 12:04pm

Thu Apr 15, 11:04am

Thu Apr 15, 10:05am

Thu Apr 15, 9:04am

Thu Apr 15, 8:04am

Thu Apr 15, 7:04am

Thu Apr 15, 6:04am

Thu Apr 15, 5:04am

Thu Apr 15, 4:04am

Thu Apr 15, 3:04am

Thu Apr 15, 2:04am

Thu Apr 15, 1:04am

Thu Apr 15, 12:04am

Wed Apr 14, 11:04pm

Wed Apr 14, 10:04pm

Wed Apr 14, 9:04pm

Wed Apr 14, 8:04pm

Wed Apr 14, 7:04pm

Wed Apr 14, 6:04pm

Wed Apr 14, 5:05pm

Wed Apr 14, 4:04pm

Wed Apr 14, 3:05pm

Wed Apr 14, 2:04pm

Wed Apr 14, 1:05pm

Wed Apr 14, 12:04pm

Wed Apr 14, 11:04am

Wed Apr 14, 10:04am

Wed Apr 14, 9:04am

Wed Apr 14, 8:04am

Wed Apr 14, 7:04am

Wed Apr 14, 6:04am

Wed Apr 14, 5:04am

Wed Apr 14, 4:04am

Wed Apr 14, 3:04am

Wed Apr 14, 2:04am

Wed Apr 14, 1:04am

Wed Apr 14, 12:04am

Tue Apr 13, 11:04pm

Tue Apr 13, 10:05pm

Tue Apr 13, 9:05pm

Tue Apr 13, 8:05pm

Tue Apr 13, 7:04pm

Tue Apr 13, 6:04pm

Tue Apr 13, 5:05pm

Tue Apr 13, 4:04pm

Tue Apr 13, 3:04pm

Tue Apr 13, 2:05pm

Tue Apr 13, 1:04pm

Tue Apr 13, 12:05pm

Tue Apr 13, 11:05am

Tue Apr 13, 10:04am

Tue Apr 13, 9:04am

Tue Apr 13, 8:04am

Tue Apr 13, 7:04am

Tue Apr 13, 6:04am

Tue Apr 13, 5:04am

Tue Apr 13, 4:04am

Tue Apr 13, 3:04am

Tue Apr 13, 2:04am

Tue Apr 13, 1:04am

Tue Apr 13, 12:05am

Mon Apr 12, 11:04pm

Mon Apr 12, 10:04pm

Mon Apr 12, 9:04pm

Mon Apr 12, 8:04pm

Mon Apr 12, 7:05pm

Mon Apr 12, 6:04pm

Mon Apr 12, 5:04pm

Mon Apr 12, 4:04pm

Mon Apr 12, 3:05pm

Mon Apr 12, 2:04pm

Mon Apr 12, 1:05pm

Mon Apr 12, 12:04pm

Mon Apr 12, 10:04am

Mon Apr 12, 9:04am

Mon Apr 12, 8:04am

Mon Apr 12, 7:04am

Mon Apr 12, 6:04am

Mon Apr 12, 5:04am

Mon Apr 12, 4:04am

Mon Apr 12, 3:04am

Mon Apr 12, 2:04am

Mon Apr 12, 1:05am

Mon Apr 12, 12:04am

Sun Apr 11, 11:04pm

Sun Apr 11, 10:04pm

Sun Apr 11, 9:04pm

Sun Apr 11, 8:04pm

Sun Apr 11, 7:04pm

Sun Apr 11, 6:05pm

Sun Apr 11, 5:05pm

Sun Apr 11, 4:04pm

Sun Apr 11, 3:05pm

Sun Apr 11, 2:05pm

Sun Apr 11, 1:05pm

Sun Apr 11, 12:04pm

Sun Apr 11, 11:05am

Sun Apr 11, 10:05am

Sun Apr 11, 9:04am

Sun Apr 11, 8:04am

Sun Apr 11, 7:04am

Sun Apr 11, 6:04am

Sun Apr 11, 5:04am

Sun Apr 11, 4:04am

Sun Apr 11, 3:04am

Sun Apr 11, 2:04am

Sun Apr 11, 1:05am

Sun Apr 11, 12:04am

Sat Apr 10, 11:05pm

Sat Apr 10, 10:04pm

Sat Apr 10, 9:04pm

Sat Apr 10, 8:04pm

Sat Apr 10, 7:05pm

Sat Apr 10, 6:04pm

Sat Apr 10, 5:04pm

Sat Apr 10, 4:04pm

Sat Apr 10, 3:04pm

Sat Apr 10, 2:05pm

Sat Apr 10, 1:04pm

Sat Apr 10, 12:04pm

Sat Apr 10, 11:04am

Sat Apr 10, 10:04am

Sat Apr 10, 9:04am

Sat Apr 10, 8:04am

Sat Apr 10, 7:04am

Sat Apr 10, 6:04am

Sat Apr 10, 5:04am

Sat Apr 10, 4:04am

Sat Apr 10, 3:04am

Sat Apr 10, 2:04am

Sat Apr 10, 1:05am

Sat Apr 10, 12:04am

Fri Apr 9, 11:04pm

Fri Apr 9, 10:05pm

Fri Apr 9, 9:04pm

Fri Apr 9, 8:05pm

Fri Apr 9, 7:05pm

Fri Apr 9, 6:04pm

Fri Apr 9, 5:04pm

Fri Apr 9, 4:05pm

Fri Apr 9, 3:05pm

Fri Apr 9, 2:04pm

Fri Apr 9, 1:04pm

Fri Apr 9, 12:04pm

Fri Apr 9, 11:05am

Fri Apr 9, 10:04am

Meta data:

ID: 5916cd4f-e06d-403f-b8f8-28dcf45bcf48
Link: https://api.weather.gov/products/5916cd4f-e06d-403f-b8f8-28dcf45bcf48